Regional Weather Roundup
Issued by NWS

Home | Current Version | Previous Version | Graphics & Text | Print | Product List | Glossary On
Versions: 1 2 3 4 5 6 7 8 9 10 11 12 13 14 15 16 17 18 19 20 21 22 23 24 25 26 27 28 29 30 31 32 33 34 35 36 37 38 39 40 41 42 43 44 45 46 47 48 49 50
000
ASUS43 KMKX 160010
RWRWI

WISCONSIN REGIONAL WEATHER ROUNDUP
NATIONAL WEATHER SERVICE MILWAUKEE/SULLIVAN WI
600 PM CST FRI DEC 15 2017

NOTE: "FAIR" INDICATES FEW OR NO CLOUDS BELOW 12,000 FEET WITH NO
SIGNIFICANT WEATHER AND/OR OBSTRUCTIONS TO VISIBILITY.

WIZ001-002-006>008-014>016-023>028-160100-
NORTHWEST WISCONSIN

CITY           SKY/WX    TMP DP  RH WIND       PRES   REMARKS
SUPERIOR ARPT  CLOUDY    16   7  69 CALM      29.80S
6HR MIN TEMP:  15; 6HR MAX TEMP:  18;

ASHLAND        CLOUDY     7   3  84 CALM      29.81R
6HR MIN TEMP:   6; 6HR MAX TEMP:  16; 6HR PCP: TRACE;

HAYWARD        CLOUDY    16   9  74 CALM      29.76F
6HR MIN TEMP:  11; 6HR MAX TEMP:  18; 6HR PCP: TRACE;

SIREN          CLOUDY    19  11  70 S3        29.77F
6HR MIN TEMP:  17; 6HR MAX TEMP:  20;

CUMBERLAND     CLOUDY    18  10  73 CALM      29.76F
RICE LAKE      CLOUDY    18  11  77 CALM      29.80S
6HR MIN TEMP:  14; 6HR MAX TEMP:  20;

CHETEK         CLOUDY    16  11  78 CALM      29.79S
6HR MIN TEMP:  14; 6HR MAX TEMP:  19;

LADYSMITH      CLOUDY    14   9  79 E3        29.80S
6HR MIN TEMP:  13; 6HR MAX TEMP:  18;

EAU CLAIRE     CLOUDY    22  16  78 CALM      29.80S
6HR MIN TEMP:  19; 6HR MAX TEMP:  22;

MENOMONIE      CLOUDY    23  18  78 E5        29.80S WCI  17
6HR MIN TEMP:  22; 6HR MAX TEMP:  24;

NEW RICHMOND   FLURRIES  22  16  77 CALM      29.77F
OSCEOLA        FLURRIES  23  17  77 E5        29.80F WCI  16
6HR MIN TEMP:  19; 6HR MAX TEMP:  23;

$$

WIZ003>005-009-010-017-018-160100-
NORTH CENTRAL WISCONSIN

CITY           SKY/WX    TMP DP  RH WIND       PRES   REMARKS
MANITOWISH WTR CLOUDY    -1  -3  93 CALM      29.75R
6HR MIN TEMP:  -1; 6HR MAX TEMP:  13;

ARBOR VITAE    CLOUDY     3   0  85 CALM      29.75R
6HR MIN TEMP:   3; 6HR MAX TEMP:  17;

WOODRUFF       CLOUDY     3   0  85 CALM      29.75R
6HR MIN TEMP:   3; 6HR MAX TEMP:  17;

RHINELANDER    CLOUDY     3   2  95 CALM      29.76R
6HR MIN TEMP:   1; 6HR MAX TEMP:  15; 6HR PCP: TRACE;

EAGLE RIVER    CLOUDY     8   3  80 CALM      29.74S
6HR MIN TEMP:   7; 6HR MAX TEMP:  15;

LAND O LAKES   CLOUDY    10   5  77 CALM      29.76R
6HR MIN TEMP:  10; 6HR MAX TEMP:  19;

PHILLIPS       CLOUDY     9   6  90 CALM      29.76R
6HR MIN TEMP:   0; 6HR MAX TEMP:  16;

TOMAHAWK       CLOUDY     2  -2  86 CALM      29.78R
6HR MIN TEMP:   1; 6HR MAX TEMP:  15;

MEDFORD        CLOUDY    14   7  76 CALM      29.76S
6HR MIN TEMP:  13; 6HR MAX TEMP:  16;

MERRILL        CLOUDY     6   4  91 CALM      29.79R
6HR MIN TEMP:   4; 6HR MAX TEMP:  19;

$$

WIZ029-030-035-036-043>047-160100-
CENTRAL WISCONSIN

CITY           SKY/WX    TMP DP  RH WIND       PRES   REMARKS
WAUSAU         CLOUDY    14   8  77 CALM      29.78R
6HR MIN TEMP:  12; 6HR MAX TEMP:  17;

MOSINEE        MOCLDY    16   9  73 CALM      29.80R
MARSHFIELD     CLOUDY    13   9  84 CALM      29.77S
6HR MIN TEMP:  12; 6HR MAX TEMP:  19;

STEVENS POINT  MOCLDY    14   8  78 CALM      29.81S
6HR MIN TEMP:  14; 6HR MAX TEMP:  19;

WAUPACA        CLOUDY    21  12  68 CALM      29.83S
6HR MIN TEMP:  21; 6HR MAX TEMP:  25;

WAUTOMA        CLOUDY    23  16  74 CALM      29.83R
6HR MIN TEMP:  22; 6HR MAX TEMP:  25;

WISC RAPIDS    CLOUDY    21  12  68 NE3       29.82S
6HR MIN TEMP:  20; 6HR MAX TEMP:  23;

CAMP DOUGLAS   CLOUDY    28  24  82 SW5       29.80S WCI  23
6HR MIN TEMP:  27; 6HR MAX TEMP:  30;

$$

WIZ011>013-019>022-031-037>040-048>050-160100-
NORTHEAST WISCONSIN

CITY           SKY/WX    TMP DP  RH WIND       PRES   REMARKS
ANTIGO         PTCLDY    -3  -5  91 CALM      29.78R
6HR MIN TEMP:  -3; 6HR MAX TEMP:  16;

SHAWANO        CLOUDY    11   6  79 CALM      29.83R
6HR MIN TEMP:  11; 6HR MAX TEMP:  22;

OCONTO         PTCLDY     5   1  86 CALM      29.84R
6HR MIN TEMP:   5; 6HR MAX TEMP:  21;

STURGEON BAY   MOCLDY    17   9  70 NW10      29.82S WCI   5
6HR MIN TEMP:  17; 6HR MAX TEMP:  22; 6HR PCP: TRACE;

GREEN BAY      CLOUDY    10   5  80 W3        29.84R
6HR MIN TEMP:   9; 6HR MAX TEMP:  22;

MANITOWOC      CLOUDY    11   5  77 CALM      29.85R
6HR MIN TEMP:  11; 6HR MAX TEMP:  24;

APPLETON       CLOUDY    19   7  58 NW5       29.81R WCI  13
CLINTONVILLE   CLOUDY    10   7  85 CALM      29.83R
OSHKOSH        CLOUDY    22  14  71 CALM      29.83R
6HR MIN TEMP:  20; 6HR MAX TEMP:  23;

$$

WIZ032>034-041-042-053>061-160100-
SOUTHWEST WISCONSIN

CITY           SKY/WX    TMP DP  RH WIND       PRES   REMARKS
LA CROSSE      CLOUDY    32  27  81 S6        29.81F WCI  26
6HR MIN TEMP:  30; 6HR MAX TEMP:  32;

SPARTA         CLOUDY    30  26  84 SW3       29.82R
6HR MIN TEMP:  27; 6HR MAX TEMP:  30;

VIROQUA        CLOUDY    30  29  99 CALM      29.80S
6HR MIN TEMP:  28; 6HR MAX TEMP:  30;

BOSCOBEL       CLOUDY    32  27  81 CALM      29.84F
6HR MIN TEMP:  30; 6HR MAX TEMP:  33; 6HR PCP: TRACE;

PRAIRIE DU CHI CLOUDY    32  27  80 CALM      29.83S
6HR MIN TEMP:  30; 6HR MAX TEMP:  34;

PLATTEVILLE    CLOUDY    32  28  86 S8        29.83F WCI  25
6HR MIN TEMP:  29; 6HR MAX TEMP:  32;

$$

WIZ056-057-062-063-064-067-068-160100-
SOUTH CENTRAL WISCONSIN

CITY           SKY/WX    TMP DP  RH WIND       PRES   REMARKS
REEDSBURG      CLOUDY    29  26  86 SW6       29.82S WCI  23
6HR MIN TEMP:  27; 6HR MAX TEMP:  30;

BARABOO/DELLS  CLOUDY    29  25  84 SW7       29.81S WCI  22
6HR MIN TEMP:  26; 6HR MAX TEMP:  30;

LONE ROCK      CLOUDY    31  27  85 CALM      29.84S
6HR MIN TEMP:  30; 6HR MAX TEMP:  32;

MINERAL POINT  CLOUDY    32  32 100 S6        29.82S WCI  26
MADISON        FLURRIES  30  25  81 VRB7      29.84S WCI  23
6HR MIN TEMP:  29; 6HR MAX TEMP:  31; 6HR PCP: TRACE;

MIDDLETON      CLOUDY    32  27  82 SW6       29.84S WCI  26
6HR MIN TEMP:  30; 6HR MAX TEMP:  32;

WATERTOWN      CLOUDY    29  26  86 SW9       29.84R WCI  21
6HR MIN TEMP:  26; 6HR MAX TEMP:  29;

MONROE         CLOUDY    30  27  86 SW8       29.83F WCI  23
JANESVILLE     CLOUDY    32  27  80 SW7       29.85F WCI  26
$$

WIZ051-052-058>065-066-070>072-160100-
SOUTHEAST WISCONSIN

CITY           SKY/WX    TMP DP  RH WIND       PRES   REMARKS
MILWAUKEE      MOCLDY    30  23  75 SW9       29.85R WCI  22
6HR MIN TEMP:  27; 6HR MAX TEMP:  31;

WAUKESHA       MOCLDY    27  21  80 SW7       29.85R WCI  19
MILWAUKEE/TIMM MOCLDY    27  18  69 SW5       29.85S WCI  21
RACINE         CLOUDY    30  23  75 SW9       29.88R WCI  22
6HR MIN TEMP:  28; 6HR MAX TEMP:  31;

BURLINGTON     CLOUDY    30  26  83 SW9       29.87R WCI  22
6HR MIN TEMP:  28; 6HR MAX TEMP:  30;

KENOSHA        CLOUDY    32  23  69 SW12      29.87R WCI  23
6HR MIN TEMP:  30; 6HR MAX TEMP:  32;

FOND DU LAC    CLOUDY    23  16  74 CALM      29.83R
6HR MIN TEMP:  22; 6HR MAX TEMP:  25; 6HR PCP: TRACE;

SHEBOYGAN      CLOUDY    20  13  74 CALM      29.84R
6HR MIN TEMP:  18; 6HR MAX TEMP:  24; 6HR PCP: TRACE;

WEST BEND      CLOUDY    21  18  86 CALM      29.83S
JUNEAU         CLOUDY    22  18  83 CALM      29.84R
6HR MIN TEMP:  19; 6HR MAX TEMP:  25;

$$

LSZ147-162-160100-
LAKE SUPERIOR

STATION/POSITION TIME  TEMP    WIND        PRES    WAVE
                       AIR SEA DIR/SP/G            HT/PER
                 (UTC) (F)     (DEG/KT/KT) (MB)    (FT/S)
DEVILS ISLAND    0000   18     270/  5/  7 1010.7R
SAXON HARBOR     2330    8                 1009.5R
$$

LMZ867-665-643>646-160100-
LAKE MICHIGAN

STATION/POSITION TIME  TEMP    WIND        PRES    WAVE
                       AIR SEA DIR/SP/G            HT/PER
                 (UTC) (F)     (DEG/KT/KT) (MB)    (FT/S)
NORTHPORT PIER   0001



USA.gov is the U.S. government's official web portal to all federal, state and local government web resources and services.